Location: Fort Wayne
(41.1310°N, 85.1290°W)
Time: 04:08:36
(UTC-04:00)

IDEFIX/ARIANE 42P - Visible Passes

Search period start: 20 October 2014 00:00
Search period end: 30 October 2014 00:00
Orbit: 786 x 803 km, 98.3° (Epoch: 19 October)

Date Brightness Start Highest point End Pass type
(mag) Time Alt. Az. Time Alt. Az. Time Alt. Az.
20 Oct 4.3 19:35:56 11° E 19:37:38 13° ENE 19:39:49 10° NE visible
20 Oct 2.5 21:16:46 80° NNW 21:16:46 80° NNW 21:21:46 10° NNW visible
21 Oct 2.7 20:48:28 51° ENE 20:48:28 51° ENE 20:53:30 10° N visible
21 Oct 5.0 22:29:18 19° WNW 22:29:18 19° WNW 22:32:03 10° NW visible
22 Oct 3.4 20:20:10 29° ENE 20:20:27 29° ENE 20:24:57 10° N visible
22 Oct 4.2 22:01:01 32° WNW 22:01:01 32° WNW 22:04:44 10° NNW visible
23 Oct 4.0 19:51:52 17° ENE 19:52:37 17° ENE 19:55:57 10° NNE visible
23 Oct 3.2 21:32:43 52° NW 21:32:43 52° NW 21:36:56 10° NNW visible
24 Oct 2.7 21:04:25 59° NNE 21:04:25 59° NNE 21:08:49 10° N visible
24 Oct 5.4 22:45:15 12° WNW 22:45:15 12° WNW 22:46:19 10° WNW visible
25 Oct 3.1 20:36:07 39° NE 20:36:07 39° NE 20:40:25 10° N visible
25 Oct 4.8 22:16:57 22° WNW 22:16:57 22° WNW 22:19:34 10° NW visible
26 Oct 3.7 20:07:48 23° ENE 20:07:48 23° ENE 20:11:42 10° NNE visible
26 Oct 4.0 21:48:38 34° NW 21:48:38 34° NW 21:51:59 10° NNW visible
27 Oct 4.2 19:39:30 13° ENE 19:39:51 14° ENE 19:42:19 10° NNE visible
27 Oct 3.3 21:20:20 47° NNW 21:20:20 47° NNW 21:24:02 10° NNW visible
28 Oct 3.1 20:52:02 43° NNE 20:52:02 43° NNE 20:55:47 10° N visible
28 Oct 5.3 22:32:52 14° WNW 22:32:52 14° WNW 22:34:10 10° NW visible
29 Oct 3.5 20:23:43 29° NE 20:23:43 29° NE 20:27:16 10° N visible
29 Oct 4.7 22:04:33 23° NW 22:04:33 23° NW 22:06:56 10° NNW visible
